Вернуться в каталог

STARLINK-32746

АктивенСвязьVLEO
NORAD 62745·PAYLOAD·🇺🇸 United States

Запущен Jan 21, 2025 с Cape Canaveral Space Force Station

Loading…

Ближайшие Пролёты (ближайшие 24 часа)

TLE

СвежийSource: CelesTrak SupGP

Эпоха: Sep 15, 2026, 03:42 UTC

1 62745C 25014L   26258.15465278  .00033291  00000+0  12059-2 0  2581
2 62745  43.0022 163.9643 0001494 276.5788 260.5174 15.27559372    12

Отслеживайте STARLINK-32746 в реальном времени с AllMySat

Download on the App Store